Rawlins, WY

1:28 AM MDT on July 22, 2017 (GMT -0600)
Rawlins Municipal

Weather History for KRWL - August, 2013

Change the Weather History Date:

Saturday, August 31, 2013

  Actual Average Record
Temperature  
Mean Temperature 71 °F 62 °F  
Max Temperature 88 °F 78 °F 89 °F (1954)
Min Temperature 54 °F 46 °F 28 °F (1962)
Degree Days  
Heating Degree Days 0 4  
Month to date heating degree days 8 59  
Since 1 June heating degree days 109 283  
Since 1 July heating degree days 8 93  
Cooling Degree Days 6 1  
Month to date cooling degree days 122 64  
Year to date cooling degree days 322 181  
Since 1 June cooling degree days 321 181  
Growing Degree Days 20 (Base 50)    
Moisture  
Dew Point 37 °F    
Average Humidity 37    
Maximum Humidity 66    
Minimum Humidity 8    
Precipitation  
Precipitation 0.00 in 0.03 in 0.33 in (1984)
Month to date precipitation 0.57 0.76  
Year to date precipitation 3.78 6.55  
Sea Level Pressure  
Sea Level Pressure 29.93 in    
Wind  
Wind Speed 9 mph (WNW)    
Max Wind Speed 23 mph    
Max Gust Speed 33 mph    
Visibility 10 miles    
Events      
T = Trace of Precipitation, MM = Missing Value Source: NWS Daily Summary

Daily Weather History Graph

Daily Weather History Graph

Search for Another Location

Airport or City:

Trip Planner

Search our weather history database for the weather conditions in past years. The results will help you decide how hot, cold, wet, or windy it might be!

Date:

Astronomy

Aug. 31, 2013 Rise Set
Actual Time 6:33 AM MDT 7:43 PM MDT
Civil Twilight 6:05 AM MDT 8:11 PM MDT
Nautical Twilight 5:30 AM MDT 8:46 PM MDT
Astronomical Twilight 4:54 AM MDT 9:21 PM MDT
Moon 2:02 AM MDT (8/31) 4:46 PM MDT (8/31)
Length of Visible Light 14h 06m
Length of Day
13h 09m
Waning Crescent, 20% of the Moon is Illuminated
Aug 31
Waning Crescent
Sep 5
New
Sep 12
First Quarter
Sep 19
Full
Sep 26
Last Quarter

Hourly Weather History & Observations

Time (MDT) Temp. Dew Point Humidity Pressure Visibility Wind Dir Wind Speed Gust Speed Precip Events Conditions
12:53 AM 69.1 °F 43.0 °F 39% 29.93 in 10.0 mi WSW 8.1 mph - N/A   Overcast
1:53 AM 66.9 °F 44.1 °F 44% 29.93 in 10.0 mi SW 11.5 mph - N/A   Mostly Cloudy
2:53 AM 66.9 °F 44.1 °F 44% 29.92 in 10.0 mi SW 11.5 mph - N/A   Partly Cloudy
3:53 AM 60.1 °F 43.0 °F 53% 29.95 in 10.0 mi Calm Calm - N/A   Partly Cloudy
4:53 AM 63.0 °F 44.1 °F 50% 29.94 in 10.0 mi SW 5.8 mph - N/A   Clear
5:53 AM 59.0 °F 43.0 °F 55% 29.96 in 10.0 mi NNE 4.6 mph - N/A   Clear
6:53 AM 54.0 °F 42.1 °F 64% 30.00 in 10.0 mi East 4.6 mph - N/A   Partly Cloudy
7:53 AM 63.0 °F 44.1 °F 50% 29.99 in 10.0 mi East 3.5 mph - N/A   Clear
8:53 AM 69.1 °F 45.0 °F 42% 29.98 in 10.0 mi WSW 3.5 mph - N/A   Clear
9:53 AM 73.9 °F 45.0 °F 35% 29.98 in 10.0 mi WSW 9.2 mph - N/A   Clear
10:53 AM 77.0 °F 42.1 °F 29% 29.96 in 10.0 mi WNW 6.9 mph - N/A   Clear
11:53 AM 80.1 °F 37.0 °F 21% 29.94 in 10.0 mi West 10.4 mph 18.4 mph N/A   Clear
12:53 PM 82.9 °F 30.9 °F 15% 29.92 in 10.0 mi West 9.2 mph 20.7 mph N/A   Clear
1:53 PM 84.0 °F 28.9 °F 14% 29.90 in 10.0 mi WNW 9.2 mph 21.9 mph N/A   Clear
2:53 PM 87.1 °F 28.0 °F 12% 29.87 in 10.0 mi WNW 16.1 mph 20.7 mph N/A   Clear
3:53 PM 84.9 °F 27.0 °F 12% 29.88 in 10.0 mi West 5.8 mph 20.7 mph N/A   Clear
4:53 PM 87.1 °F 26.1 °F 11% 29.85 in 10.0 mi WNW 13.8 mph 21.9 mph N/A   Partly Cloudy
5:53 PM 86.0 °F 19.9 °F 9% 29.85 in 10.0 mi NNW 10.4 mph 20.7 mph N/A   Clear
6:53 PM 82.9 °F 19.0 °F 9% 29.88 in 10.0 mi WNW 10.4 mph - N/A   Clear
7:53 PM 77.0 °F 32.0 °F 19% 29.90 in 10.0 mi NNE 11.5 mph 19.6 mph N/A   Clear
8:53 PM 73.9 °F 35.1 °F 24% 29.91 in 10.0 mi NE 19.6 mph 26.5 mph N/A   Clear
9:53 PM 68.0 °F 43.0 °F 40% 29.92 in 10.0 mi East 11.5 mph - N/A   Clear
10:53 PM 66.9 °F 43.0 °F 42% 29.93 in 10.0 mi East 8.1 mph - N/A   Clear
11:53 PM 64.9 °F 43.0 °F 45% 29.93 in 10.0 mi East 10.4 mph - N/A   Clear